THORAD AGENA D DEB, 42502

Orbit data source: Space-Track

THORAD AGENA D DEB, 42502 is space debris in SSO originally from a launch on Wed, 08 Apr 1970 UTC launched from the Air Force Western Test Range (AFWTR). Debris objects in space refer to the collection of defunct objects orbiting the Earth. Examples of debris include non-operational satellites, rocket bodies, and fragments generated from explosions, collisions, or faulty payload assembly.

Loading next visibility...
Identifier
42502, 1970-025RG
Orbit
SSO
Country
Flag of USUS
Related business
Manufacturer
Unknown
Mission
Spacecraft
Bus & Motor
Unknown
Mass
Unknown
Launch date (UTC)
1970-04-08 (56 years ago)
Launch vehicle
Unknown
Launch site
Air Force Western Test Range (AFWTR)
Object type
Payload
Rocket body
Debris
Shape & HBR
Unknown shape, 0.1 m
Radar Cross Section
Small (<0.1 m²)

Expand to show TLE details & history
Last TLE update: 6 hours ago

TLE from 6 hours ago
0 THORAD AGENA D DEB
1 42502U 70025RG  26034.23647117  .00000028  00000-0  10476-3 0  9994
2 42502  99.7287 309.7671 0013720 182.4261 330.0981 13.54851541603254
Epoch: 2026-02-03T05:40Z
TLE epoch observation values (Epoch: 2026-02-03T05:40:31.109Z)
Latitude
27.16404°
Longitude
-83.76168°
Altitude
1,048.835 km
Speed
7.334 km/s
True Right ascension
08h 59m 09s
True Declination
27° 01' 48"
Sunlit
Object was in full shadow at epoch
Visualization orbit readout
Latitude
Unknown
Longitude
Unknown
Altitude
Unknown
Speed
Unknown
Apparent Right ascension
Unknown
Apparent Declination
Unknown
Sunlit
N/A
Visualization observer readout
Local Sidereal Time
13:18:11
Azimuth
Unknown
Elevation
Unknown
Doppler factor
Unknown
Orbital elements
Apogee altitude
1,061.952 km
Perigee altitude
1,041.565 km
Semi-major axis
7,429.895 km
Eccentricity
0.00137
Inclination
99.7287°
RAAN
309.7671°
Arg. of periapsis
182.4261°
True anomaly
330.01961°
Mean anomaly
330.0981°
Eccentric anomaly
330.05887°
Mean motion
3.38898 °/min
Orbital period
106.23 mins
BSTAR
0.00010476
Loading maneuver chart data...
Computing Atmospheric mass density...

Documentation

Showing up to 5 results
|